sat.trackr.live / text

‹ back to catalog

MONITOR-4 (RS57S)

NORAD 57182 · 2023-091S

PAYLOAD ACTIVE UNKNOWN

§ Identity

Operator
Country
CIS
Launch date
2023-06-27
Launch site
VOSTO
Launch vehicle
Mass (kg)
RCS (m²)

Purposes: comms

External: N2YO · Heavens-Above · Gunter

§ Orbital elements

Epoch: 2026-05-25T04:28:44.488128Z

Period
94.28 min
Inclination
97.5090°
Eccentricity
0.0012186
Mean motion
15.27399469 rev/d
Perigee alt
475.2 km
Apogee alt
492.0 km
Semi-major
6,861.7 km
B*
4.0588e-4
RAAN
208.4413°
Arg perigee
173.7922°
Mean anomaly
186.3470°
Rev number
16,078

§ Raw data

MONITOR-4 (RS57S)1 57182U 23091S   26145.18662602  .00010839  00000+0  40588-3 0  99952 57182  97.5090 208.4413 0012186 173.7922 186.3470 15.27399469160782

JSON: /api/v1/satellites/57182 · /tle

For live sub-satellite position, see the globe view (requires WebGL).

§ Visibility from observer

Set your observer location to see the next 7 days of passes ≥ 10°. The values pass through the URL so the page stays shareable.

No JS? Fill the form by hand. The geolocation button needs JavaScript.

§ Radio — SatNOGS DB

ModeDescriptionDownlinkUplink
GMSK USP Mode U - GMSK 2k4 (USP FEC) TLM 436.080 MHz
GMSK USP Mode U - GMSK 4k8 (USP FEC) TLM 436.080 MHz
GMSK USP Mode U - GMSK 9k6 (USP FEC) 436.080 MHz

3 transmitters · refreshed weekly from db.satnogs.org